TimeEST,TemperatureF,Dew PointF,Humidity,Sea Level PressureIn,VisibilityMPH,Wind Direction,Wind SpeedMPH,Gust SpeedMPH,PrecipitationIn,Events,Conditions,WindDirDegrees,DateUTC
12:51 AM,30.9,28.9,92,30.38,9.0,Calm,Calm,-,N/A,,Clear,0,2012-11-11 05:51:00
1:51 AM,30.0,27.0,88,30.39,6.0,Calm,Calm,-,N/A,,Clear,0,2012-11-11 06:51:00
2:51 AM,28.9,26.1,89,30.39,6.0,Calm,Calm,-,N/A,,Clear,0,2012-11-11 07:51:00
3:51 AM,28.9,27.0,92,30.39,7.0,Calm,Calm,-,N/A,,Clear,0,2012-11-11 08:51:00
4:51 AM,28.0,26.1,92,30.42,7.0,Calm,Calm,-,N/A,,Clear,0,2012-11-11 09:51:00
5:51 AM,27.0,26.1,96,30.45,7.0,Calm,Calm,-,N/A,,Clear,0,2012-11-11 10:51:00
6:51 AM,27.0,25.0,92,30.48,7.0,Calm,Calm,-,N/A,,Clear,0,2012-11-11 11:51:00
7:51 AM,30.0,28.0,92,30.51,7.0,Calm,Calm,-,N/A,,Clear,0,2012-11-11 12:51:00
8:51 AM,37.0,33.1,86,30.51,7.0,Calm,Calm,-,N/A,,Clear,0,2012-11-11 13:51:00
9:51 AM,45.0,35.1,68,30.51,10.0,Calm,Calm,-,N/A,,Clear,0,2012-11-11 14:51:00
10:51 AM,53.1,36.0,52,30.47,10.0,Calm,Calm,-,N/A,,Clear,0,2012-11-11 15:51:00
11:51 AM,62.1,35.1,37,30.42,10.0,Calm,Calm,-,N/A,,Clear,0,2012-11-11 16:51:00
12:51 PM,66.9,32.0,27,30.36,10.0,Calm,Calm,-,N/A,,Clear,0,2012-11-11 17:51:00
1:51 PM,73.0,28.0,19,30.32,10.0,Variable,3.5,-,N/A,,Clear,0,2012-11-11 18:51:00
2:50 PM,68.0,46.4,46,29.93,10.0,South,19.6,31.1,N/A,,Mostly Cloudy,180,2012-11-11 19:50:00
2:51 PM,73.0,27.0,18,30.32,10.0,SW,9.2,-,N/A,,Clear,220,2012-11-11 19:51:00
3:51 PM,72.0,27.0,19,30.32,10.0,SSW,5.8,-,N/A,,Clear,200,2012-11-11 20:51:00
4:51 PM,66.9,28.0,23,30.34,10.0,SSE,9.2,-,N/A,,Clear,160,2012-11-11 21:51:00
5:51 PM,59.0,30.9,35,30.37,10.0,SSE,6.9,-,N/A,,Clear,150,2012-11-11 22:51:00
6:51 PM,62.1,30.9,31,30.37,10.0,South,6.9,-,N/A,,Clear,170,2012-11-11 23:51:00
7:51 PM,61.0,32.0,34,30.36,10.0,South,10.4,18.4,N/A,,Clear,170,2012-11-12 00:51:00
8:51 PM,61.0,34.0,36,30.37,10.0,SSE,15.0,20.7,N/A,,Clear,160,2012-11-12 01:51:00
9:51 PM,60.1,37.9,44,30.35,10.0,SSE,9.2,23.0,N/A,,Clear,160,2012-11-12 02:51:00
10:51 PM,59.0,39.9,49,30.33,10.0,SSE,15.0,21.9,N/A,,Clear,160,2012-11-12 03:51:00
11:51 PM,60.1,42.1,51,30.30,10.0,SSE,16.1,29.9,N/A,,Clear,160,2012-11-12 04:51:00